TVF735B GMMX-LFPO

Flight info

Callsign TVF735B
Flight time N/A
Altitude 38000
Route GMMX/10 MABAP UR722 SAK UG5 KORIS DCT VJF DCT SVL DCT HIJ DCT RUSEM DCT SOTUK DCT TLD DCT SIE DCT EDIGO DCT DGO DCT CEGAM DCT LUSEM DCT LULUT DCT TUDRA/N0391F280 DCT BEVOL UT158 AMB
Aircraft B738/M-SDFGHIJ1RWXY/LB1

Departure

Time N/A
Airport Marrakesh Menara Airport (GMMX)

Arrival

Time 2026-05-06 15:21
Airport Paris-Orly Airport (LFPO)
Time Latitude Longitude Altitude Speed Heading
2026-05-06 14:29 44.90467 -0.46951 37954 ft 456 kts 25°
2026-05-06 14:29 44.93275 -0.44872 37959 ft 456 kts 25°
2026-05-06 14:30 44.98898 -0.40701 37942 ft 457 kts 25°
2026-05-06 14:30 45.04520 -0.36522 37938 ft 457 kts 26°
2026-05-06 14:31 45.10143 -0.32332 37928 ft 457 kts 26°
2026-05-06 14:31 45.15766 -0.28133 37924 ft 457 kts 26°
2026-05-06 14:32 45.21391 -0.23924 37933 ft 457 kts 26°
2026-05-06 14:32 45.27004 -0.19713 37919 ft 457 kts 26°
2026-05-06 14:33 45.32632 -0.15482 37919 ft 457 kts 26°
2026-05-06 14:33 45.38254 -0.11246 37929 ft 458 kts 26°
2026-05-06 14:34 45.43881 -0.06996 37919 ft 458 kts 26°
2026-05-06 14:34 45.49500 -0.02742 37920 ft 457 kts 26°
2026-05-06 14:35 45.55115 0.01517 37904 ft 457 kts 26°
2026-05-06 14:35 45.60723 0.05781 37920 ft 457 kts 26°
2026-05-06 14:36 45.66330 0.10055 37908 ft 456 kts 26°
2026-05-06 14:36 45.71929 0.14331 37914 ft 456 kts 26°
2026-05-06 14:37 45.77519 0.18612 37911 ft 456 kts 26°
2026-05-06 14:37 45.83063 0.22866 37916 ft 455 kts 26°
2026-05-06 14:38 45.88653 0.27166 37911 ft 455 kts 27°
2026-05-06 14:38 45.94232 0.31466 37915 ft 455 kts 27°
2026-05-06 14:39 45.99808 0.35775 37918 ft 455 kts 26°
2026-05-06 14:39 46.05385 0.40094 37911 ft 455 kts 27°
2026-05-06 14:40 46.10958 0.44421 37920 ft 455 kts 27°
2026-05-06 14:40 46.16535 0.48760 37918 ft 455 kts 27°
2026-05-06 14:41 46.22109 0.53107 37909 ft 456 kts 27°
2026-05-06 14:41 46.27684 0.57466 37925 ft 456 kts 27°
2026-05-06 14:42 46.33265 0.61839 37926 ft 456 kts 27°
2026-05-06 14:42 46.38846 0.66221 37930 ft 456 kts 27°
2026-05-06 14:43 46.44424 0.70614 37924 ft 457 kts 27°
2026-05-06 14:43 46.47221 0.72819 37718 ft 460 kts 27°
2026-05-06 14:43 46.50047 0.75049 37205 ft 461 kts 27°
2026-05-06 14:44 46.52875 0.77216 36639 ft 458 kts 23°
2026-05-06 14:44 46.55841 0.78841 36170 ft 452 kts 12°
2026-05-06 14:44 46.58877 0.79836 35851 ft 444 kts 12°
2026-05-06 14:45 46.64883 0.81636 34996 ft 437 kts 11°
2026-05-06 14:45 46.67842 0.82531 34585 ft 433 kts 12°
2026-05-06 14:45 46.70778 0.83435 34179 ft 429 kts 12°
2026-05-06 14:45 46.73685 0.84344 33720 ft 426 kts 11°
2026-05-06 14:46 46.76568 0.85253 33265 ft 422 kts 12°
2026-05-06 14:46 46.79380 0.86144 32864 ft 417 kts 11°
2026-05-06 14:46 46.82191 0.87038 32462 ft 412 kts 12°
2026-05-06 14:46 46.84984 0.87925 32071 ft 407 kts 12°
2026-05-06 14:47 46.87734 0.88801 31668 ft 403 kts 12°
2026-05-06 14:47 46.90454 0.89667 31290 ft 398 kts 12°
2026-05-06 14:47 46.93150 0.90527 30901 ft 395 kts 12°
2026-05-06 14:47 46.95821 0.91379 30518 ft 391 kts 12°
2026-05-06 14:48 46.98470 0.92226 30139 ft 387 kts 12°
2026-05-06 14:48 47.01086 0.93062 29733 ft 383 kts 12°
2026-05-06 14:48 47.03665 0.93883 29441 ft 375 kts 12°
2026-05-06 14:48 47.06195 0.94684 29133 ft 369 kts 12°
2026-05-06 14:49 47.08682 0.95472 28834 ft 363 kts 12°
2026-05-06 14:49 47.11131 0.96248 28545 ft 357 kts 12°
2026-05-06 14:49 47.13562 0.97019 28258 ft 356 kts 12°
2026-05-06 14:49 47.15969 0.97784 27904 ft 352 kts 12°
2026-05-06 14:50 47.18355 0.98544 27513 ft 349 kts 12°
2026-05-06 14:50 47.20718 0.99297 27148 ft 346 kts 12°
2026-05-06 14:50 47.23066 1.00045 26765 ft 344 kts 12°
2026-05-06 14:50 47.25402 1.00791 26404 ft 343 kts 12°
2026-05-06 14:51 47.27728 1.01534 26030 ft 341 kts 12°
2026-05-06 14:51 47.30042 1.02275 25658 ft 340 kts 12°
2026-05-06 14:51 47.32358 1.03016 25315 ft 340 kts 12°
2026-05-06 14:51 47.34672 1.03757 24921 ft 341 kts 12°
2026-05-06 14:52 47.36998 1.04503 24564 ft 344 kts 11°
2026-05-06 14:52 47.39365 1.05262 24206 ft 353 kts 11°
2026-05-06 14:52 47.41769 1.06034 23792 ft 354 kts 12°
2026-05-06 14:52 47.44159 1.06895 23278 ft 355 kts 17°
2026-05-06 14:53 47.46492 1.08115 22787 ft 355 kts 20°
2026-05-06 14:53 47.48796 1.09389 22365 ft 352 kts 20°
2026-05-06 14:53 47.51088 1.10627 21970 ft 349 kts 19°
2026-05-06 14:53 47.53368 1.11814 21581 ft 346 kts 18°
2026-05-06 14:54 47.54875 1.12581 21338 ft 344 kts 17°
2026-05-06 14:54 47.57862 1.14093 20848 ft 341 kts 17°
2026-05-06 14:54 47.60094 1.15236 20519 ft 338 kts 18°
2026-05-06 14:54 47.62257 1.16543 20268 ft 335 kts 21°
2026-05-06 14:55 47.64378 1.17931 20006 ft 332 kts 22°
2026-05-06 14:55 47.66483 1.19329 19761 ft 332 kts 22°
2026-05-06 14:55 47.68604 1.20734 19518 ft 336 kts 23°
2026-05-06 14:55 47.70750 1.22148 19281 ft 339 kts 22°
2026-05-06 14:56 47.72207 1.23104 19111 ft 339 kts 22°
2026-05-06 14:56 47.74358 1.24509 18870 ft 337 kts 22°
2026-05-06 14:56 47.76465 1.25882 18633 ft 337 kts 21°
2026-05-06 14:56 47.78620 1.27284 18392 ft 336 kts 22°
2026-05-06 14:57 47.80758 1.28675 18171 ft 335 kts 22°
2026-05-06 14:57 47.82898 1.30069 17899 ft 336 kts 22°
2026-05-06 14:57 47.85036 1.31465 17540 ft 335 kts 22°
2026-05-06 14:57 47.87166 1.32850 17194 ft 334 kts 22°
2026-05-06 14:58 47.89288 1.34232 16821 ft 332 kts 21°
2026-05-06 14:58 47.91397 1.35607 16500 ft 329 kts 22°
2026-05-06 14:58 47.93495 1.36978 16145 ft 329 kts 22°
2026-05-06 14:58 47.95590 1.38349 15774 ft 329 kts 21°
2026-05-06 14:59 47.97679 1.39715 15415 ft 326 kts 21°
2026-05-06 14:59 47.99748 1.41071 15076 ft 324 kts 21°
2026-05-06 14:59 48.01803 1.42418 14742 ft 321 kts 22°
2026-05-06 14:59 48.03839 1.43755 14400 ft 319 kts 22°
2026-05-06 15:00 48.05868 1.45087 14063 ft 317 kts 22°
2026-05-06 15:00 48.07881 1.46410 13726 ft 316 kts 22°
2026-05-06 15:00 48.09887 1.47730 13351 ft 314 kts 21°
2026-05-06 15:00 48.11879 1.49042 12990 ft 312 kts 21°
2026-05-06 15:01 48.13858 1.50346 12656 ft 310 kts 21°
2026-05-06 15:01 48.15829 1.51646 12339 ft 310 kts 21°
2026-05-06 15:01 48.17803 1.52947 11974 ft 310 kts 22°
2026-05-06 15:01 48.19772 1.54249 11645 ft 309 kts 22°
2026-05-06 15:02 48.21740 1.55551 11326 ft 310 kts 21°
2026-05-06 15:02 48.23718 1.56859 11004 ft 312 kts 22°
2026-05-06 15:02 48.25615 1.58394 10925 ft 306 kts 31°
2026-05-06 15:02 48.27350 1.60145 10896 ft 295 kts 33°
2026-05-06 15:03 48.29025 1.61915 10910 ft 295 kts 34°
2026-05-06 15:03 48.30704 1.63686 10910 ft 295 kts 32°
2026-05-06 15:03 48.32386 1.65444 10913 ft 294 kts 32°
2026-05-06 15:03 48.34073 1.67191 10911 ft 294 kts 33°
2026-05-06 15:04 48.35760 1.68930 10914 ft 294 kts 32°
2026-05-06 15:04 48.37448 1.70666 10913 ft 294 kts 32°
2026-05-06 15:04 48.39137 1.72397 10910 ft 294 kts 31°
2026-05-06 15:04 48.40835 1.74137 10909 ft 295 kts 32°
2026-05-06 15:05 48.42534 1.75878 10914 ft 296 kts 33°
2026-05-06 15:05 48.44236 1.77624 10915 ft 296 kts 32°
2026-05-06 15:05 48.45938 1.79370 10910 ft 296 kts 31°
2026-05-06 15:05 48.47643 1.81118 10914 ft 296 kts 32°
2026-05-06 15:06 48.49347 1.82867 10912 ft 296 kts 32°
2026-05-06 15:06 48.51049 1.84617 10906 ft 296 kts 32°
2026-05-06 15:06 48.52745 1.86367 10908 ft 296 kts 33°
2026-05-06 15:06 48.54157 1.88610 10910 ft 300 kts 59°
2026-05-06 15:07 48.54816 1.91539 10913 ft 302 kts 79°
2026-05-06 15:07 48.55078 1.94687 10913 ft 302 kts 83°
2026-05-06 15:07 48.55270 1.97846 10883 ft 303 kts 84°
2026-05-06 15:07 48.55452 2.01014 10909 ft 303 kts 84°
2026-05-06 15:08 48.55640 2.04179 10915 ft 303 kts 83°
2026-05-06 15:08 48.55839 2.07389 10911 ft 303 kts 83°
2026-05-06 15:08 48.56038 2.10518 10915 ft 303 kts 82°
2026-05-06 15:08 48.56244 2.13686 10911 ft 304 kts 82°
2026-05-06 15:09 48.56451 2.16862 10899 ft 304 kts 83°
2026-05-06 15:09 48.56661 2.20042 10918 ft 305 kts 83°
2026-05-06 15:09 48.56870 2.23226 10916 ft 305 kts 83°
2026-05-06 15:09 48.57079 2.26417 10916 ft 306 kts 83°
2026-05-06 15:10 48.57289 2.29614 10920 ft 306 kts 83°
2026-05-06 15:10 48.57497 2.32819 10908 ft 306 kts 83°
2026-05-06 15:10 48.57704 2.36019 10902 ft 306 kts 83°
2026-05-06 15:10 48.57988 2.39204 10713 ft 309 kts 73°
2026-05-06 15:11 48.58721 2.42262 10407 ft 310 kts 66°
2026-05-06 15:11 48.59538 2.45248 10079 ft 307 kts 65°
2026-05-06 15:11 48.60345 2.48201 9951 ft 295 kts 66°
2026-05-06 15:11 48.61094 2.50979 9609 ft 286 kts 66°
2026-05-06 15:12 48.61825 2.53726 9274 ft 279 kts 66°
2026-05-06 15:12 48.62534 2.56419 8954 ft 273 kts 65°
2026-05-06 15:12 48.63229 2.59077 8661 ft 272 kts 66°
2026-05-06 15:12 48.63924 2.61745 8363 ft 274 kts 66°
2026-05-06 15:13 48.64620 2.64431 8079 ft 274 kts 66°
2026-05-06 15:13 48.65314 2.67117 7796 ft 274 kts 66°
2026-05-06 15:13 48.66008 2.69798 7505 ft 273 kts 66°
2026-05-06 15:13 48.66696 2.72471 7226 ft 272 kts 66°
2026-05-06 15:14 48.67382 2.75134 6942 ft 271 kts 66°
2026-05-06 15:14 48.68065 2.77791 6667 ft 270 kts 66°
2026-05-06 15:14 48.68979 2.80232 6364 ft 265 kts 43°
2026-05-06 15:14 48.70514 2.81659 6093 ft 259 kts 16°
2026-05-06 15:15 48.72275 2.82055 5826 ft 255 kts 360°
2026-05-06 15:15 48.74046 2.82035 5548 ft 254 kts 355°
2026-05-06 15:15 48.75719 2.81300 5271 ft 253 kts 329°
2026-05-06 15:15 48.77020 2.79536 5024 ft 252 kts 308°
2026-05-06 15:16 48.77950 2.77271 4840 ft 249 kts 301°
2026-05-06 15:16 48.78717 2.74996 4691 ft 240 kts 292°
2026-05-06 15:16 48.78757 2.72496 4387 ft 241 kts 258°
2026-05-06 15:16 48.78272 2.70103 4134 ft 234 kts 257°
2026-05-06 15:17 48.77853 2.67804 3939 ft 225 kts 258°
2026-05-06 15:17 48.77447 2.65587 3823 ft 212 kts 258°
2026-05-06 15:17 48.77052 2.63456 3559 ft 208 kts 258°
2026-05-06 15:17 48.76662 2.61365 3264 ft 204 kts 258°
2026-05-06 15:18 48.76281 2.59316 2994 ft 201 kts 257°
2026-05-06 15:18 48.75906 2.57301 2724 ft 197 kts 258°
2026-05-06 15:18 48.75544 2.55356 2462 ft 187 kts 258°
2026-05-06 15:18 48.75203 2.53524 2212 ft 174 kts 258°
2026-05-06 15:19 48.74891 2.51846 2003 ft 158 kts 258°
2026-05-06 15:19 48.74605 2.50296 1774 ft 150 kts 258°
2026-05-06 15:19 48.74326 2.48789 1562 ft 148 kts 258°
2026-05-06 15:19 48.74050 2.47286 1360 ft 147 kts 258°
2026-05-06 15:20 48.73768 2.45782 1147 ft 150 kts 259°
2026-05-06 15:20 48.73488 2.44277 953 ft 148 kts 259°
2026-05-06 15:20 48.73217 2.42771 740 ft 147 kts 259°
2026-05-06 15:20 48.72937 2.41283 572 ft 147 kts 258°
2026-05-06 15:21 48.72670 2.39814 359 ft 145 kts 258°
2026-05-06 15:21 48.72418 2.38443 294 ft 117 kts 254°
2026-05-06 15:21 48.72244 2.37503 293 ft 66 kts 254°
2026-05-06 15:21 48.72171 2.36953 291 ft 31 kts 276°
2026-05-06 15:22 48.72185 2.36742 290 ft 17 kts 276°
2026-05-06 15:22 48.72195 2.36590 290 ft 17 kts 273°
2026-05-06 15:22 48.72226 2.36452 294 ft 16 kts 297°
2026-05-06 15:22 48.72291 2.36321 293 ft 15 kts 320°
2026-05-06 15:23 48.72387 2.36261 290 ft 15 kts 346°
2026-05-06 15:23 48.72485 2.36234 292 ft 14 kts 11°
2026-05-06 15:23 48.72529 2.36353 292 ft 14 kts 77°
2026-05-06 15:23 48.72553 2.36488 292 ft 13 kts 74°
2026-05-06 15:24 48.72579 2.36617 294 ft 13 kts 63°
2026-05-06 15:24 48.72657 2.36637 293 ft 10 kts 16°
2026-05-06 15:24 48.72691 2.36658 291 ft 2 kts 22°
2026-05-06 15:24 48.72702 2.36664 294 ft 1 kts 22°